Location: Esp�n
(42.4593°N, 0.2047°W)
Time: 13:29:18
(UTC+00:00)

Cosmos 2322 Rocket - Pass Details

Date: 07 June 2020
Orbit: 833 x 850 km, 71.0° (Epoch: 13 July)

Event Time Altitude Azimuth Distance (km) Brightness Sun altitude
Exits shadow 01:29:27 30° 151° (SSE) 1,453 3.1 -21.5°
Maximum altitude 01:31:30 41° 106° (ESE) 1,187 3.0 -21.4°
Drops below altitude 10° 01:36:44 10° 38° (NE) 2,450 5.7 -21.0°
Sets 01:39:17 0° 31° (NNE) 3,388 6.9 -20.8°
